When you browse on this site, cookies collect data to enhance your experience and personalize the content and advertising you see.
Visit our Privacy Policy to learn more. By continuing to use the site, you agree to this use of cookies and data.
  • In Hungary
  • List of Countries
  • For 7 days
  • Water Temperature
  • Satellite Maps
  • Weather Map
  • News
  • Weather Widgets
  • user-avatar
    Login

    Hourly Weather Mata

    Today, 19 November, Monday

    Time Temperature Precipitation Wind Pressure Humidity
    00:00 -4°C° 0.1 mm 3 mps 754 mmHg 80%
    01:00 -3°C° 0.1 mm 2 mps 754 mmHg 82%
    02:00 -3°C° 0.1 mm 2 mps 754 mmHg 84%
    03:00 -3°C° 0.1 mm 2 mps 754 mmHg 86%
    04:00 -3°C° 0 mm 2 mps 754 mmHg 86%
    05:00 -3°C° 0 mm 2 mps 754 mmHg 87%
    06:00 -3°C° 0 mm 2 mps 755 mmHg 88%
    07:00 -3°C° 0 mm 2 mps 755 mmHg 89%
    08:00 -3°C° 0.1 mm 2 mps 755 mmHg 89%
    09:00 -2°C° 0.1 mm 2 mps 755 mmHg 89%
    10:00 -2°C° 0.1 mm 2 mps 755 mmHg 89%
    11:00 -2°C° 0.1 mm 2 mps 755 mmHg 89%
    12:00 -2°C° 0.1 mm 2 mps 755 mmHg 89%
    13:00 -2°C° 0.1 mm 2 mps 755 mmHg 88%
    14:00 -2°C° 0.1 mm 2 mps 755 mmHg 90%
    15:00 -2°C° 0.1 mm 2 mps 755 mmHg 92%
    16:00 -2°C° 0.1 mm 2 mps 755 mmHg 94%
    17:00 -2°C° 0.2 mm 2 mps 755 mmHg 95%
    18:00 -2°C° 0.2 mm 2 mps 755 mmHg 95%
    19:00 0°C° 0.2 mm 1 mps 755 mmHg 96%
    20:00 0°C° 0.2 mm 1 mps 755 mmHg 96%
    21:00 0°C° 0.2 mm 1 mps 755 mmHg 96%
    22:00 -1°C° 0.2 mm 1 mps 755 mmHg 96%
    23:00 -1°C° 0.2 mm 1 mps 755 mmHg 96%

    Tomorrow, 20 November, Tuesday

    Time Temperature Precipitation Wind Pressure Humidity
    00:00 -1°C° 0.2 mm 1 mps 755 mmHg 96%
    01:00 -1°C° 0.2 mm 1 mps 755 mmHg 96%
    02:00 -1°C° 0.2 mm 1 mps 755 mmHg 96%
    03:00 -1°C° 0.2 mm 1 mps 755 mmHg 96%
    04:00 -1°C° 0.2 mm 1 mps 754 mmHg 96%
    05:00 -1°C° 0.1 mm 1 mps 754 mmHg 96%
    06:00 -1°C° 0.1 mm 1 mps 754 mmHg 96%
    07:00 -1°C° 0.1 mm 1 mps 754 mmHg 96%
    08:00 -1°C° 0 mm 1 mps 754 mmHg 95%
    09:00 -1°C° 0 mm 1 mps 754 mmHg 94%
    10:00 -1°C° 0 mm 1 mps 754 mmHg 93%
    11:00 -1°C° 0 mm 1 mps 753 mmHg 92%
    12:00 0°C° 0 mm 1 mps 753 mmHg 91%
    13:00 0°C° 0 mm 1 mps 753 mmHg 89%
    14:00 0°C° 0 mm 1 mps 753 mmHg 91%
    15:00 0°C° 0 mm 1 mps 752 mmHg 93%
    16:00 0°C° 0 mm 1 mps 752 mmHg 94%
    17:00 -1°C° 0 mm 1 mps 752 mmHg 95%
    18:00 -1°C° 0 mm 1 mps 751 mmHg 95%
    19:00 -3°C° 0 mm 2 mps 751 mmHg 96%
    20:00 -3°C° 0 mm 2 mps 751 mmHg 95%
    21:00 -3°C° 0 mm 2 mps 750 mmHg 95%
    22:00 -4°C° 0 mm 3 mps 750 mmHg 94%
    23:00 -4°C° 0 mm 3 mps 749 mmHg 92%

    Day after tomorrow, 21 November, Wednesday

    Time Temperature Precipitation Wind Pressure Humidity
    00:00 -4°C° 0 mm 3 mps 749 mmHg 91%
    01:00 -4°C° 0 mm 4 mps 748 mmHg 89%
    02:00 -5°C° 0 mm 4 mps 748 mmHg 88%
    03:00 -6°C° 0 mm 5 mps 747 mmHg 87%
    04:00 -6°C° 0 mm 5 mps 747 mmHg 86%
    05:00 -6°C° 0.1 mm 5 mps 746 mmHg 86%
    06:00 -7°C° 0.1 mm 5 mps 745 mmHg 86%
    07:00 -7°C° 0.1 mm 5 mps 744 mmHg 87%
    08:00 -8°C° 0.3 mm 6 mps 744 mmHg 88%
    09:00 -8°C° 0.3 mm 6 mps 743 mmHg 89%
    10:00 -8°C° 0.3 mm 6 mps 743 mmHg 90%
    11:00 -8°C° 0.5 mm 6 mps 742 mmHg 90%
    12:00 -6°C° 0.5 mm 6 mps 741 mmHg 90%
    13:00 -6°C° 0.5 mm 6 mps 740 mmHg 91%
    14:00 -6°C° 0.4 mm 5 mps 740 mmHg 91%
    15:00 -6°C° 0.4 mm 5 mps 740 mmHg 91%
    16:00 -5°C° 0.4 mm 4 mps 739 mmHg 92%
    17:00 -6°C° 0.3 mm 5 mps 739 mmHg 91%
    18:00 -6°C° 0.3 mm 5 mps 739 mmHg 90%
    19:00 -6°C° 0.3 mm 5 mps 739 mmHg 89%
    20:00 -6°C° 0.1 mm 5 mps 739 mmHg 85%
    21:00 -7°C° 0.1 mm 5 mps 740 mmHg 82%
    22:00 -8°C° 0.1 mm 5 mps 740 mmHg 79%
    23:00 -9°C° 0 mm 4 mps 740 mmHg 82%

    22 November, Thursday

    Time Temperature Precipitation Wind Pressure Humidity
    00:00 -10°C° 0 mm 4 mps 740 mmHg 84%
    01:00 -10°C° 0 mm 3 mps 741 mmHg 87%
    02:00 -10°C° 0 mm 3 mps 741 mmHg 88%
    03:00 -10°C° 0 mm 3 mps 741 mmHg 90%
    04:00 -10°C° 0 mm 3 mps 741 mmHg 92%
    05:00 -10°C° 0 mm 3 mps 740 mmHg 92%
    06:00 -10°C° 0 mm 3 mps 740 mmHg 92%
    07:00 -11°C° 0 mm 4 mps 739 mmHg 92%
    08:00 -11°C° 0.1 mm 4 mps 739 mmHg 91%
    09:00 -11°C° 0.1 mm 5 mps 738 mmHg 91%
    10:00 -11°C° 0.1 mm 5 mps 738 mmHg 90%
    11:00 -10°C° 0.1 mm 6 mps 737 mmHg 90%
    12:00 -10°C° 0.1 mm 6 mps 737 mmHg 89%
    13:00 -10°C° 0.1 mm 6 mps 736 mmHg 89%
    14:00 -9°C° 0.5 mm 6 mps 735 mmHg 89%
    15:00 -9°C° 0.5 mm 6 mps 735 mmHg 90%
    16:00 -9°C° 0.5 mm 7 mps 734 mmHg 91%
    17:00 -9°C° 0.3 mm 6 mps 734 mmHg 91%
    18:00 -9°C° 0.3 mm 6 mps 734 mmHg 90%
    19:00 -8°C° 0.3 mm 6 mps 734 mmHg 90%
    20:00 -10°C° 0.1 mm 6 mps 734 mmHg 86%
    21:00 -11°C° 0.1 mm 6 mps 734 mmHg 83%
    22:00 -12°C° 0.1 mm 6 mps 735 mmHg 79%
    23:00 -13°C° 0 mm 5 mps 736 mmHg 77%

    23 November, Friday

    Time Temperature Precipitation Wind Pressure Humidity
    00:00 -14°C° 0 mm 5 mps 736 mmHg 75%
    01:00 -15°C° 0 mm 5 mps 737 mmHg 73%
    02:00 -16°C° 0 mm 4 mps 738 mmHg 76%
    03:00 -16°C° 0 mm 4 mps 739 mmHg 79%
    04:00 -17°C° 0 mm 4 mps 739 mmHg 81%
    05:00 -18°C° 0 mm 4 mps 740 mmHg 83%
    06:00 -17°C° 0 mm 3 mps 741 mmHg 85%
    07:00 -18°C° 0 mm 3 mps 741 mmHg 87%
    08:00 -17°C° 0 mm 2 mps 742 mmHg 88%
    09:00 -16°C° 0 mm 2 mps 742 mmHg 88%
    10:00 -16°C° 0 mm 2 mps 743 mmHg 88%
    11:00 -15°C° 0 mm 2 mps 743 mmHg 87%
    12:00 -12°C° 0 mm 1 mps 743 mmHg 86%
    13:00 -11°C° 0 mm 1 mps 744 mmHg 86%
    14:00 -11°C° 0.1 mm 1 mps 744 mmHg 89%
    15:00 -11°C° 0.1 mm 1 mps 744 mmHg 92%
    16:00 -11°C° 0.1 mm 1 mps 745 mmHg 95%
    17:00 -13°C° 0.1 mm 2 mps 745 mmHg 94%
    18:00 -13°C° 0.1 mm 2 mps 746 mmHg 93%
    19:00 -13°C° 0.1 mm 3 mps 746 mmHg 92%
    20:00 -14°C° 0 mm 3 mps 747 mmHg 91%
    21:00 -15°C° 0 mm 3 mps 747 mmHg 90%
    22:00 -15°C° 0 mm 3 mps 748 mmHg 89%
    23:00 -16°C° 0 mm 3 mps 748 mmHg 90%

    24 November, Saturday

    Time Temperature Precipitation Wind Pressure Humidity
    00:00 -17°C° 0 mm 3 mps 748 mmHg 91%
    01:00 -17°C° 0 mm 2 mps 749 mmHg 91%
    02:00 -17°C° 0 mm 3 mps 749 mmHg 92%
    03:00 -16°C° 0 mm 3 mps 749 mmHg 93%
    04:00 -17°C° 0 mm 4 mps 749 mmHg 94%
    05:00 -15°C° 0.1 mm 4 mps 748 mmHg 93%
    06:00 -14°C° 0.1 mm 5 mps 748 mmHg 92%
    07:00 -12°C° 0.1 mm 6 mps 748 mmHg 91%
    08:00 -12°C° 0.2 mm 6 mps 747 mmHg 91%
    09:00 -12°C° 0.2 mm 7 mps 747 mmHg 90%
    10:00 -11°C° 0.2 mm 8 mps 746 mmHg 89%
    11:00 -11°C° 0.2 mm 8 mps 745 mmHg 88%
    12:00 -10°C° 0.2 mm 8 mps 745 mmHg 88%
    13:00 -10°C° 0.2 mm 9 mps 744 mmHg 87%
    14:00 -10°C° 0.2 mm 9 mps 744 mmHg 87%
    15:00 -9°C° 0.2 mm 9 mps 743 mmHg 86%
    16:00 -9°C° 0.2 mm 9 mps 743 mmHg 86%
    17:00 -9°C° 0.2 mm 9 mps 743 mmHg 85%
    18:00 -9°C° 0.2 mm 9 mps 742 mmHg 85%
    19:00 -9°C° 0.2 mm 9 mps 742 mmHg 85%
    20:00 -9°C° 0.2 mm 9 mps 742 mmHg 85%
    21:00 -8°C° 0.2 mm 9 mps 742 mmHg 86%
    22:00 -8°C° 0.2 mm 9 mps 742 mmHg 87%
    23:00 -7°C° 0.1 mm 8 mps 742 mmHg 87%
    Show more